Regional Weather Roundup
Issued by NWS

Home | Current Version | Previous Version | Graphics & Text | Print | Product List | Glossary On
Versions: 1 2 3 4 5 6 7 8 9 10 11 12 13 14 15 16 17 18 19 20 21 22 23 24 25 26 27 28 29 30 31 32 33 34 35 36 37 38 39 40 41 42 43 44 45 46 47 48 49 50
638
ASUS44 KLIX 281205
RWRLA
LOUISIANA WEATHER ROUNDUP
NATIONAL WEATHER SERVICE NEW ORLEANS LA
600 AM CST SAT FEB 28 2015

NOTE: "FAIR" INDICATES FEW OR NO CLOUDS BELOW 12,000 FEET WITH NO
      SIGNIFICANT WEATHER AND/OR OBSTRUCTIONS TO VISIBILITY.
      SKY/WX - SKY CONDITION AND SIGNIFICANT WEATHER.
      TMP - AIR TEMPERATURE.    DP   - DEWPOINT TEMPERATURE.
      RH  - RELATIVE HUMIDITY.  PRES - PRESSURE.
      HX  - HEAT INDEX.         WCI  - WIND CHILL INDEX.

*  THESE STATIONS ARE NOT NWS OR FAA STATIONS AND ARE NOT UNDER
   NWS QUALITY CONTROL.

LAZ040-048-061>063-065-066-069-281300-
SOUTHEAST LOUISIANA

CITY           SKY/WX    TMP DP  RH WIND       PRES   REMARKS
N.O. AUDUBON     N/A     43  32  67 MISG        N/A
6HR MIN TEMP:  43; 6HR MAX TEMP:  45;

N.O. INTL ARPT MOCLDY    42  30  62 NE13      30.39R
6HR MIN TEMP:  41; 6HR MAX TEMP:  46;

N.O. LAKEFRONT CLOUDY    44  30  57 NE18      30.41R
6HR MIN TEMP:  44; 6HR MAX TEMP:  48;

SLIDELL        CLEAR     36  26  67 NE8       30.41R WCI  30
6HR MIN TEMP:  34; 6HR MAX TEMP:  39;

BATON ROUGE    CLEAR     34  26  72 NE14      30.38F WCI  25
6HR MIN TEMP:  33; 6HR MAX TEMP:  37;

BOOTHVILLE     MOCLDY    50  43  77 NE10      30.36R
6HR MIN TEMP:  50; 6HR MAX TEMP:  50;

BELLE CHASSE   MOCLDY    42  29  59 NE8       30.38R
6HR MIN TEMP:  42; 6HR MAX TEMP:  45;

BOGALUSA*        N/A     35  25  66 NE5       30.45R WCI  31
6HR MIN TEMP:  35; 6HR MAX TEMP:  38;

GALLIANO*      PTSUNNY   46  37  69 MISG      30.37R
6HR MIN TEMP:  41; 6HR MAX TEMP:  47;

NEW ROADS*     FAIR      35  24  66 NE7       30.40R WCI  29
6HR MIN TEMP:  31; 6HR MAX TEMP:  35;

GONZALES*      CLOUDY    37  28  71 NE10G16   30.39R WCI  30
6HR MIN TEMP:  36; 6HR MAX TEMP:  40;

HAMMOND*       PTCLDY    36  25  64 CALM      30.43R
HOUMA*         MOCLDY    43  32  65 NE12      30.36R
PORT FOURCHON* CLOUDY    48  41  76 NE16G22   30.38R

$$

LAZ041-044-053-054-281300-
SOUTHWEST LOUISIANA

CITY           SKY/WX    TMP DP  RH WIND       PRES   REMARKS
LAKE CHARLES   CLOUDY    38  29  70 NE15      30.36R WCI  29
6HR MIN TEMP:  35; 6HR MAX TEMP:  38; 6HR PCP: TRACE;

LAFAYETTE      CLOUDY    37  28  70 NE7       30.38R WCI  32
6HR MIN TEMP:  33; 6HR MAX TEMP:  37;

PATTERSON      MOCLDY    39  30  70 NE14      30.36R WCI  31
6HR MIN TEMP:  39; 6HR MAX TEMP:  41;

SALT POINT       N/A     41  32  70 VRB7      30.32R
6HR MIN TEMP:  39; 6HR MAX TEMP:  41;

NEW IBERIA     PTCLDY    37  28  70 NE10      30.37R WCI  30
6HR MIN TEMP:  35; 6HR MAX TEMP:  37;

CHENAULT AIRPK CLOUDY    37  28  70 E8        30.37  WCI  31

$$

LAZ027-028-281300-
CENTRAL LOUISIANA

CITY           SKY/WX    TMP DP  RH WIND       PRES   REMARKS
FORT POLK      CLOUDY    36  25  65 E8        30.36R WCI  29
6HR MIN TEMP:  32; 6HR MAX TEMP:  36;

ALEXANDRIA INT CLOUDY    34  26  72 NE6       30.40R WCI  29
6HR MIN TEMP:  32; 6HR MAX TEMP:  34;

ALEXANDRIA     CLOUDY    34  26  72 E7        30.39S WCI  28
6HR MIN TEMP:  31; 6HR MAX TEMP:  35;


$$

LAZ001-002-281300-
NORTHWEST LOUISIANA

CITY           SKY/WX    TMP DP  RH WIND       PRES   REMARKS
SHREVEPORT     MOCLDY    31  22  69 NE12      30.42R WCI  22
6HR MIN TEMP:  30; 6HR MAX TEMP:  33;

BARKSDALE AFB  PTCLDY    29  21  73 NE5       30.43R WCI  24
6HR MIN TEMP:  29; 6HR MAX TEMP:  32;

DTN SHREVEPORT MOCLDY    30  20  66 NE8       30.43S WCI  22
6HR MIN TEMP:  29; 6HR MAX TEMP:  32;


$$

LAZ014-016-281300-
NORTHEAST LOUISIANA

CITY           SKY/WX    TMP DP  RH WIND       PRES   REMARKS
MONROE         PTCLDY    30  26  85 NE9       30.46R WCI  22
6HR MIN TEMP:  30; 6HR MAX TEMP:  32;

TALLULAH       CLEAR     32  26  78 NE6       30.45S WCI  26
6HR MIN TEMP:  32; 6HR MAX TEMP:  34;


$$




USA.gov is the U.S. government's official web portal to all federal, state and local government web resources and services.